Theta_e
322 322 323 322 322 322 322 323 323 323 323 324 323 323 323 323 324 324 324 324 324 324 324 324 324 323 323 322 322 322 319 324 331 330 328 326 341 349 351 353 352 355 359 345 347 340 334 336 338 341 338 337 335 330 333 331 331 328 320 316 313 314 313 317 317 319 322 322 324 327 329 328 327 332 334 337 335 336 338 338 336 341 341 341 343 346 346 347
321 322 322 321 321 321 322 322 322 322 322 323 322 323 323 323 323 323 323 323 324 323 324 323 323 323 322 321 321 321 321 327 325 324 325 339 351 355 353 356 353 356 356 340 338 332 329 332 334 336 335 329 332 326 328 325 330 323 318 317 312 316 317 322 320 321 322 322 325 326 329 329 329 332 335 332 331 333 334 335 339 339 340 343 344 344 345 345
321 321 321 321 321 321 321 322 322 322 322 322 322 322 322 322 323 323 323 323 323 323 323 323 323 322 322 321 320 319 321 330 326 319 324 348 355 355 353 352 354 355 337 336 335 330 329 331 332 334 331 326 326 323 326 322 326 323 318 314 315 319 320 322 323 323 326 325 324 325 327 327 329 330 333 331 331 329 329 333 337 336 337 340 342 343 344 345
321 321 320 320 320 320 320 321 321 321 321 321 321 322 322 322 322 322 322 322 322 322 322 322 322 322 321 321 321 322 325 325 315 320 330 349 350 356 353 350 357 354 339 338 332 328 330 330 331 332 328 325 323 325 321 322 320 321 317 316 318 321 318 321 324 325 326 328 325 326 326 326 328 328 330 327 327 329 332 337 336 337 339 340 342 343 344 344
320 320 320 320 320 320 320 320 321 321 321 321 321 321 321 321 321 322 322 322 322 322 321 321 321 321 321 321 318 324 327 313 314 334 341 352 353 350 352 351 356 340 335 336 331 328 326 326 330 329 327 321 322 321 321 322 323 322 319 321 321 322 320 323 325 327 327 327 326 326 325 324 330 330 330 330 326 328 334 340 341 340 343 341 341 342 344 344
319 319 319 319 320 320 320 320 320 321 320 320 320 320 320 321 321 321 321 321 321 321 320 321 320 321 320 320 323 328 325 304 327 338 362 353 354 353 352 354 355 340 334 334 328 324 323 326 327 325 323 321 319 318 320 321 323 317 320 321 324 325 322 326 326 326 326 326 326 326 326 330 328 328 332 335 334 336 342 344 343 344 344 344 344 344 343 343
319 319 318 318 319 318 319 319 319 319 319 319 320 319 319 320 320 320 320 320 320 320 320 320 320 320 320 319 324 327 321 318 323 344 360 359 355 353 354 358 357 338 334 329 326 323 323 324 326 324 322 320 319 320 319 320 322 322 318 322 322 324 324 327 326 328 327 326 324 326 330 327 329 325 335 334 339 341 344 344 344 345 345 344 342 343 343 344
318 318 318 318 319 318 318 318 318 319 318 318 319 318 319 319 319 320 320 320 320 320 320 320 320 321 320 324 330 317 317 316 333 341 359 361 348 348 352 339 334 331 332 329 324 322 324 323 324 326 322 318 319 319 320 319 322 320 319 323 324 325 326 327 327 326 325 325 327 327 326 325 328 329 333 335 340 343 344 345 345 344 344 343 342 342 344 345
318 318 318 318 318 318 318 318 318 318 318 318 318 318 318 318 319 320 320 320 320 319 320 319 320 320 321 325 325 318 314 320 340 336 353 342 334 330 331 328 328 327 328 327 325 323 324 324 325 326 319 319 322 319 319 318 317 321 322 324 324 324 326 327 326 324 324 326 327 325 325 328 330 332 331 337 340 344 345 345 344 344 342 342 342 344 346 346
317 318 318 318 318 318 318 318 318 317 317 317 317 317 317 318 320 320 320 319 319 319 319 321 320 320 322 326 320 312 324 337 331 334 342 337 335 328 327 327 326 326 324 324 324 323 323 326 326 328 325 321 322 319 320 320 319 324 323 324 324 325 325 326 323 324 326 326 328 325 325 325 330 328 324 337 340 344 344 343 344 341 341 342 343 344 347 346
317 317 317 317 317 317 317 318 318 317 317 317 317 317 317 318 320 320 320 319 319 320 320 320 321 319 324 324 318 310 329 336 330 335 333 339 337 327 325 326 326 324 324 323 322 324 328 329 329 326 322 320 321 319 320 323 325 323 325 325 324 324 325 325 326 325 327 325 327 325 323 327 328 328 326 334 340 343 342 342 342 341 341 342 343 344 348 348
317 317 317 317 317 317 317 317 317 317 317 317 316 316 317 318 319 319 319 319 319 319 320 320 321 324 328 325 318 319 329 334 335 333 337 338 335 329 327 327 326 325 323 321 322 325 329 329 328 323 317 324 317 321 321 325 326 325 325 321 321 322 322 325 324 326 327 324 328 327 323 321 323 323 330 336 339 340 341 342 342 342 342 342 344 344 346 347
317 316 317 317 317 317 317 317 317 317 316 316 316 315 316 317 319 319 319 319 320 319 320 321 323 329 331 316 316 325 329 336 335 334 334 339 335 331 328 328 326 325 325 323 322 328 331 330 327 322 323 321 320 315 324 327 325 326 325 323 319 318 318 325 328 326 326 327 329 327 313 317 321 326 332 336 338 338 338 334 339 341 341 342 343 344 346 347
317 316 316 316 316 316 316 316 316 316 315 315 315 314 315 316 319 320 319 320 320 320 321 322 327 330 331 326 319 324 327 336 334 331 333 336 332 328 329 328 327 326 327 324 326 330 330 331 327 325 326 322 320 328 323 324 325 319 323 323 318 315 315 323 326 325 323 325 327 326 315 316 322 328 332 335 337 336 334 336 337 338 340 342 342 344 346 348
316 316 316 316 316 316 316 316 315 315 315 314 314 314 314 316 320 321 321 322 320 321 322 324 330 333 323 323 330 336 365 336 330 328 333 331 328 325 325 326 325 326 326 327 328 331 331 329 325 321 319 325 326 322 319 321 320 321 317 312 319 315 315 320 326 323 322 321 329 324 315 317 323 326 332 334 334 335 334 336 337 339 340 341 343 344 346 347
316 315 316 316 316 316 315 315 315 315 314 314 313 313 316 319 321 321 323 326 324 322 327 329 335 332 327 324 323 347 332 326 327 330 331 331 326 321 323 322 324 325 326 329 332 330 330 327 321 321 321 322 320 318 318 317 316 319 315 313 313 315 316 318 323 325 326 323 326 323 317 320 322 328 331 334 334 334 334 334 336 338 340 342 342 345 347 349
315 315 315 315 316 315 315 314 314 314 313 313 313 314 318 322 323 324 325 325 326 327 332 334 336 335 320 325 330 321 321 327 330 329 329 330 325 323 322 321 321 323 327 329 328 328 327 322 323 322 322 318 319 318 313 312 313 314 316 314 315 313 317 315 321 324 324 323 320 321 320 321 324 328 330 332 333 333 331 333 336 338 339 343 344 345 346 349
315 315 315 315 316 315 315 314 314 313 312 312 311 314 317 322 325 325 326 324 333 333 331 333 331 327 320 327 317 318 325 328 327 328 328 332 327 324 322 320 322 323 324 323 326 322 324 319 321 315 316 317 317 316 311 308 311 311 312 312 313 316 317 315 316 321 325 322 321 319 322 321 324 328 329 330 332 331 331 331 334 337 340 342 343 343 343 348
315 314 314 315 315 315 314 314 313 313 312 312 314 315 319 319 327 330 329 333 328 328 314 320 324 314 310 319 323 322 325 329 328 326 323 328 329 326 324 324 322 321 318 318 319 322 321 319 318 315 311 313 314 316 314 315 315 314 313 313 314 312 313 314 318 323 324 319 318 320 319 321 323 326 328 330 331 331 331 333 334 336 338 341 344 345 345 343
315 315 314 314 314 314 314 313 313 312 311 312 323 330 330 329 330 323 329 331 327 321 321 322 323 321 320 320 318 326 331 329 322 323 324 326 326 323 321 321 320 321 318 314 318 320 321 313 310 310 312 313 316 318 318 318 317 316 316 315 314 313 314 318 319 322 323 320 318 319 323 322 323 326 327 329 331 332 330 331 332 335 336 336 342 344 344 348
314 314 314 314 314 314 313 312 312 312 311 314 318 322 320 319 316 315 319 321 329 328 323 322 323 321 321 322 323 326 321 322 324 321 323 327 324 321 317 318 316 314 316 317 317 322 320 312 312 313 315 315 316 318 318 318 316 315 315 313 313 314 312 316 317 321 323 318 317 322 321 323 324 326 328 329 329 328 329 331 332 333 335 337 339 339 339 345
313 314 314 314 313 313 313 312 311 311 310 317 323 324 323 326 327 328 326 316 321 324 324 323 325 322 326 324 326 326 324 319 319 321 324 324 321 316 317 316 315 312 317 317 318 316 314 311 314 316 318 318 317 317 317 316 313 314 314 313 312 311 315 318 319 320 321 318 317 320 317 322 324 326 328 328 327 329 332 332 333 335 335 337 336 336 338 338
313 313 313 313 313 312 312 311 311 309 318 323 323 327 324 328 331 333 329 322 319 322 322 322 319 320 322 325 326 326 318 316 314 319 322 322 319 317 318 314 314 314 315 316 312 312 310 313 317 318 318 316 316 316 315 314 314 312 312 312 310 314 312 310 316 319 319 317 316 320 318 322 327 329 329 329 327 329 332 332 334 334 335 335 334 336 338 338
313 313 313 312 312 311 311 310 309 316 321 325 323 321 321 327 330 329 324 318 317 320 321 322 322 321 320 320 326 322 318 318 318 317 325 321 316 318 316 315 314 313 312 314 315 312 311 315 319 318 317 316 314 314 314 312 311 313 313 312 312 312 313 312 315 317 319 319 319 320 317 320 323 324 326 329 330 328 329 331 333 335 335 336 337 338 339 337
313 313 313 312 311 311 309 308 318 329 322 320 318 321 324 332 333 329 322 320 320 317 325 322 323 322 323 330 328 319 319 320 320 322 324 321 318 316 316 318 316 311 313 315 315 313 313 317 319 316 316 316 314 313 313 312 310 311 313 313 314 314 313 313 315 315 313 313 317 315 311 312 322 325 326 327 328 327 329 330 332 334 334 335 335 336 338 337
313 313 313 312 312 311 309 314 325 315 313 314 319 330 332 331 330 332 324 316 307 316 320 312 323 317 329 321 324 320 320 315 321 323 324 323 326 318 318 314 317 311 314 314 313 314 314 317 317 315 315 314 313 313 314 314 311 310 311 315 315 314 314 314 314 314 309 306 314 317 308 305 322 323 321 322 325 328 331 331 331 335 336 334 334 335 336 336
313 313 312 312 311 309 311 310 318 314 311 319 328 332 331 329 340 332 317 310 303 316 312 319 317 320 326 323 322 320 306 311 321 324 322 324 320 324 315 313 315 317 317 317 313 309 315 315 315 315 314 313 312 310 314 314 311 310 316 316 316 313 312 313 314 314 312 315 316 317 314 308 308 315 321 323 323 325 327 327 329 331 337 335 335 334 336 337
313 313 312 311 310 310 312 314 315 311 311 319 323 324 327 331 336 332 314 302 301 318 311 315 317 326 323 323 322 315 315 320 313 318 322 323 323 319 317 314 313 314 316 314 304 312 315 314 314 313 313 312 311 313 316 316 312 315 319 318 314 314 313 314 314 313 313 312 310 313 317 310 308 315 322 324 320 320 321 324 326 329 333 336 337 336 337 337
312 312 312 311 310 309 314 315 316 312 315 321 323 325 324 331 330 320 311 302 312 313 323 313 323 321 320 322 317 317 317 320 312 318 322 322 323 320 312 315 316 315 317 314 308 313 316 317 316 315 313 310 315 316 317 316 311 316 319 318 317 316 314 315 314 311 312 311 306 311 315 308 307 313 314 319 318 320 322 324 326 327 329 332 333 335 337 339
312 312 312 311 311 319 320 319 317 320 320 320 321 324 322 323 321 310 304 296 315 307 314 315 315 313 319 314 313 315 315 316 318 319 320 316 319 322 319 322 316 314 313 314 313 316 318 322 322 316 313 316 316 318 319 317 316 320 318 317 316 315 315 316 315 314 311 306 308 312 313 311 304 311 313 313 315 319 324 326 326 327 329 330 333 334 335 337
311 311 311 311 311 317 316 309 314 322 326 328 326 320 320 322 312 305 298 305 314 311 315 312 312 317 314 312 308 315 316 315 315 317 313 317 316 318 317 314 318 312 313 312 311 316 317 317 316 317 320 319 319 316 318 318 318 317 315 314 313 313 316 314 312 314 306 303 310 311 311 313 304 308 314 317 321 321 321 322 325 325 327 329 333 332 333 336
310 309 311 312 314 317 313 310 320 323 329 328 322 316 318 309 311 301 303 316 304 308 310 309 314 313 313 314 312 312 312 314 316 314 311 311 312 311 312 308 311 305 305 308 308 315 312 314 317 318 321 318 316 315 314 316 317 315 314 314 308 305 307 302 307 303 302 300 309 312 313 308 308 313 315 317 318 322 323 322 323 327 329 331 333 333 334 335
308 308 308 312 315 315 317 317 319 322 321 321 318 313 311 307 300 306 306 311 304 312 310 314 312 312 313 312 311 313 315 310 316 313 314 313 312 311 313 313 314 312 304 309 309 308 310 315 315 316 317 319 318 310 310 310 313 312 311 310 306 302 301 297 302 305 304 308 311 311 314 306 312 314 320 318 319 321 323 325 325 328 332 333 333 335 333 334
307 308 313 319 320 320 321 325 325 325 317 318 314 309 308 303 302 315 309 309 309 314 313 312 313 313 313 309 311 313 309 314 313 313 313 310 311 308 310 314 316 314 313 311 308 307 304 304 310 314 310 318 317 315 314 312 312 312 315 312 309 308 303 299 301 298 301 303 309 313 308 306 305 309 317 318 323 324 324 324 328 329 333 337 337 338 337 335
307 310 318 323 323 323 323 323 326 326 319 313 307 305 301 303 308 308 308 311 313 314 312 314 311 310 309 311 313 314 313 309 314 312 310 309 307 309 309 311 315 316 315 307 311 310 308 307 313 317 317 317 315 317 318 315 314 314 314 315 309 307 313 303 307 305 305 304 305 309 307 312 310 321 322 325 323 323 322 324 325 327 328 333 337 337 336 335
309 322 322 320 324 328 327 325 324 324 317 308 305 302 302 308 305 311 310 314 314 311 312 312 311 308 308 309 313 312 315 311 312 312 310 311 312 310 313 314 314 316 313 309 312 306 310 307 315 316 318 316 315 318 317 317 305 311 312 307 311 316 313 309 310 309 309 305 304 311 310 312 316 316 318 321 320 321 322 323 323 326 327 329 334 339 339 338
317 320 317 320 324 327 328 326 323 321 318 309 305 302 309 311 314 313 318 313 314 315 313 306 306 306 306 306 308 311 311 313 312 311 308 312 310 313 312 314 318 316 317 315 312 315 308 309 315 314 312 317 319 318 317 317 317 314 307 312 317 318 316 311 303 307 304 300 303 308 306 308 308 305 319 318 318 318 320 322 322 325 328 330 331 339 341 339
316 318 320 319 318 326 328 328 322 318 312 307 304 309 314 310 316 314 316 315 315 316 311 309 309 310 307 307 307 310 311 308 310 311 309 311 308 317 314 313 317 317 317 319 314 313 314 307 311 314 315 316 318 317 315 318 318 313 312 319 310 305 304 309 307 300 300 299 301 305 307 308 309 311 314 315 315 316 319 322 322 322 326 330 333 334 338 340
317 318 316 324 325 329 329 329 322 315 308 304 305 304 311 313 317 316 318 317 316 315 311 312 309 309 310 307 310 311 311 306 310 309 308 310 307 314 314 316 314 317 318 318 314 315 314 307 308 315 314 316 316 314 307 310 316 318 318 315 317 313 309 306 307 307 307 300 301 302 306 303 313 313 316 315 318 318 317 320 320 321 323 327 332 335 336 339
319 314 312 326 329 330 333 327 317 311 305 302 305 307 314 312 316 318 318 317 315 314 312 312 314 310 309 310 311 308 311 310 310 310 310 312 310 316 314 317 315 316 318 318 315 317 313 315 305 311 317 315 308 312 309 311 309 310 311 311 312 311 314 313 311 307 305 303 303 301 300 305 313 316 316 317 317 318 318 319 322 322 323 325 329 334 338 341
315 310 311 326 329 332 328 321 311 305 304 308 310 310 312 312 315 317 318 318 316 319 315 314 313 310 311 309 310 313 310 310 310 309 310 311 311 308 316 317 317 315 317 316 314 315 313 312 306 311 311 309 310 315 314 313 314 311 310 309 311 309 307 303 303 312 309 304 298 300 300 309 316 320 319 317 319 319 321 321 322 324 323 326 328 333 340 341
315 307 311 324 328 329 321 310 309 309 306 305 306 311 311 323 314 315 317 318 316 315 319 316 315 314 314 312 312 312 311 309 310 310 311 310 314 313 315 319 318 318 314 312 312 316 316 316 310 308 309 311 313 316 317 316 317 316 314 311 313 313 311 306 298 305 308 308 309 308 304 308 317 320 320 321 321 320 322 322 323 323 326 326 328 329 339 345
316 310 321 325 327 326 318 310 311 308 306 309 313 313 316 316 315 316 314 316 314 316 315 314 314 313 315 315 313 312 313 310 310 309 311 312 314 315 318 318 318 317 317 314 315 316 328 311 308 309 315 314 316 317 317 317 315 314 315 315 313 310 311 309 309 311 307 308 305 305 303 308 319 323 322 322 324 322 325 323 323 324 325 328 330 332 339 346
312 311 313 323 325 324 316 307 306 306 307 311 311 312 316 316 316 314 313 314 313 313 313 313 315 316 314 317 315 312 315 308 312 311 311 314 312 318 318 318 318 315 314 314 312 316 310 313 309 306 305 308 310 314 313 316 315 312 312 314 314 314 313 312 312 315 308 307 308 304 299 307 321 326 325 321 321 320 321 323 325 324 325 327 331 336 341 347
312 316 313 317 321 319 309 313 311 309 308 308 309 310 313 314 316 315 314 313 315 314 314 313 314 315 315 317 315 315 316 311 310 313 313 314 315 318 317 318 318 316 317 318 338 319 312 312 309 303 299 298 299 300 302 306 309 311 313 314 315 313 313 311 306 309 302 309 311 305 305 310 320 323 321 321 321 322 323 323 323 327 327 325 330 337 344 348
313 308 312 309 316 314 314 317 315 314 313 311 309 311 312 311 314 316 315 314 315 315 314 314 316 316 314 314 313 313 313 315 312 311 311 312 316 318 317 317 316 317 332 336 329 319 313 314 312 309 306 304 307 312 315 314 312 307 310 311 312 314 314 313 311 308 304 306 305 307 311 310 316 318 318 319 321 320 320 323 323 324 326 328 332 335 340 348
314 309 313 305 311 312 311 313 312 315 312 315 309 312 310 311 312 313 316 311 315 314 314 314 313 312 313 313 312 311 313 313 315 314 312 311 316 317 318 319 317 320 341 327 323 317 317 310 312 314 312 312 313 314 314 314 310 311 309 309 311 312 313 311 308 306 314 308 302 307 312 310 311 315 317 319 320 322 322 324 323 324 326 327 330 341 345 342
308 314 316 317 308 305 308 309 313 313 315 315 313 314 311 310 311 310 313 314 315 316 311 313 313 313 313 313 313 310 312 313 314 311 313 313 314 317 316 319 316 328 322 317 319 316 313 308 312 312 311 312 313 313 314 313 313 312 312 311 311 312 312 310 312 311 315 308 306 312 314 314 314 316 317 319 321 322 321 322 324 325 326 329 332 336 337 336
313 312 313 317 309 314 315 315 316 314 315 315 312 313 310 310 309 312 312 312 312 313 314 308 310 312 314 315 314 312 314 308 308 314 317 314 313 314 313 315 317 321 318 316 317 321 315 310 313 313 311 312 312 312 313 312 312 312 311 312 312 312 311 311 311 313 312 315 314 316 318 314 316 317 319 320 323 323 323 325 325 324 323 327 327 330 338 337
309 306 308 312 313 313 315 316 315 314 311 314 311 312 311 311 309 312 314 313 310 311 316 311 311 313 315 316 317 312 318 318 319 313 324 322 313 316 314 314 314 320 320 315 315 319 313 310 314 312 310 310 312 313 312 312 312 310 312 312 312 312 312 312 312 313 313 314 313 313 315 314 319 323 322 323 326 325 325 322 321 324 324 322 323 324 330 335
309 313 313 307 308 311 314 312 310 310 308 312 311 311 312 312 312 314 314 315 314 315 315 313 316 316 317 316 315 316 317 316 318 318 319 318 316 319 318 314 317 314 316 315 316 317 316 312 314 313 308 308 311 312 311 312 311 310 310 311 312 311 310 311 311 314 313 312 314 313 313 312 318 321 321 323 324 325 323 323 322 323 323 324 323 325 330 335
312 315 316 311 307 315 309 311 311 311 306 312 311 312 312 312 314 313 311 314 316 317 316 315 317 315 315 315 316 315 316 317 318 318 320 319 321 322 322 320 318 317 315 315 318 314 317 314 311 311 306 306 310 311 310 311 309 306 308 310 312 313 313 313 314 315 315 314 311 309 311 317 318 321 319 321 321 322 321 321 323 326 330 329 329 332 333 332
Wind_Speed
22 22 21 21 21 21 22 21 20 20 20 20 20 19 19 19 19 18 16 16 15 14 14 14 13 13 13 12 12 12 10 10 7 10 12 14 9 5 8 10 15 14 13 8 11 9 10 10 10 8 7 6 4 7 6 5 6 6 7 4 3 7 8 5 10 8 10 12 10 9 9 8 9 9 9 10 10 8 7 8 6 6 8 15 17 19 18 17
22 21 21 21 22 23 22 21 20 21 21 21 20 21 20 19 19 18 17 15 15 14 13 12 12 12 12 11 12 11 10 9 11 14 19 4 11 9 8 6 13 14 13 12 11 11 10 9 9 7 6 6 5 2 5 6 8 9 5 4 4 9 9 9 8 8 10 12 10 9 9 8 9 7 7 6 9 8 6 9 10 13 14 17 18 19 19 18
21 22 22 22 22 23 23 23 21 22 21 21 21 21 21 21 19 18 18 16 14 13 13 11 11 11 11 11 9 10 9 8 13 18 16 16 14 10 9 11 12 14 16 12 11 11 11 9 8 7 7 9 8 7 7 7 10 5 8 7 7 8 9 9 6 9 14 12 11 10 10 9 7 6 6 6 9 9 7 8 11 12 15 17 18 18 18 17
23 23 23 23 22 24 23 23 23 21 21 21 22 22 22 21 20 19 18 16 14 12 11 11 10 9 10 9 7 9 8 11 13 15 5 22 17 14 12 12 14 14 17 14 9 11 10 12 8 9 9 10 6 3 8 7 10 5 9 7 8 7 7 5 8 7 11 10 10 10 8 9 6 4 5 7 9 6 8 8 10 14 16 18 17 18 17 16
23 22 22 22 23 23 23 24 23 22 22 22 22 22 22 21 20 19 18 15 13 12 11 10 9 9 9 9 10 7 7 8 2 8 8 10 17 14 14 15 14 16 16 12 10 10 11 11 7 10 9 9 6 7 6 5 9 3 12 9 7 6 8 4 10 8 11 9 9 8 9 10 6 6 6 4 4 6 6 10 13 14 16 17 19 18 16 16
22 22 22 22 22 23 24 24 23 23 23 23 23 23 22 21 20 19 18 15 12 10 9 9 9 8 8 6 9 8 7 4 5 7 10 6 9 12 16 13 14 13 13 13 12 10 11 11 11 10 8 12 11 10 8 4 7 7 3 7 3 9 9 7 9 10 9 9 8 8 9 8 8 9 7 10 11 8 8 13 14 15 15 16 16 16 16 16
22 23 24 24 24 25 25 24 25 23 22 23 23 23 22 21 20 19 16 14 11 9 8 7 7 7 7 8 9 8 11 11 3 8 11 10 11 8 10 13 10 12 13 13 12 11 11 12 12 11 10 7 10 8 8 6 8 6 7 6 8 8 9 9 10 9 9 8 10 8 9 9 8 11 8 10 10 11 13 13 15 17 17 16 15 14 15 15
22 23 23 22 23 23 24 25 24 23 23 22 22 23 23 22 21 19 15 12 9 8 7 7 7 8 7 7 6 8 10 12 9 13 11 10 10 9 9 12 14 13 13 15 13 13 11 13 13 8 8 9 6 3 7 4 11 8 6 2 10 8 9 9 8 10 9 9 8 7 9 10 10 10 9 11 11 12 14 14 16 16 16 15 15 14 14 13
23 24 23 23 24 23 22 23 24 23 22 22 23 23 23 22 20 18 14 10 8 6 6 5 6 6 5 6 8 9 11 4 11 13 15 13 14 14 15 12 15 14 13 13 14 13 9 11 13 11 9 8 9 7 8 8 8 4 8 7 9 10 9 9 10 11 10 7 8 9 11 13 14 14 12 10 12 13 15 15 15 15 15 14 14 14 12 12
22 23 23 23 24 23 22 23 24 24 23 22 22 22 21 20 18 16 11 7 6 5 5 6 6 7 6 6 9 10 5 3 8 7 9 9 14 16 18 14 16 15 13 14 12 13 13 8 15 12 14 5 7 7 9 11 9 8 8 10 10 10 10 9 11 10 10 10 8 11 11 12 12 8 10 11 11 13 14 15 15 15 15 14 13 12 11 12
23 23 23 23 23 24 22 21 23 23 22 22 21 21 20 20 17 14 9 6 5 6 5 6 4 7 7 10 9 9 4 2 3 6 6 9 15 16 16 14 15 14 14 12 11 11 12 11 8 1 7 5 12 12 13 12 13 9 10 11 12 10 6 9 11 11 8 9 9 10 10 9 8 9 9 11 12 12 14 15 14 13 13 12 13 13 11 10
22 23 23 23 25 24 23 22 22 23 23 22 21 20 20 19 17 10 7 6 6 6 6 7 7 6 8 10 11 2 0 4 3 5 6 10 14 16 17 15 14 15 15 12 14 12 6 7 6 10 6 10 12 9 3 10 9 10 11 11 12 10 9 10 10 9 5 9 9 10 13 11 8 11 12 12 11 13 13 13 13 13 13 13 13 12 11 10
22 23 23 24 24 23 22 21 21 22 25 24 21 20 19 17 15 9 5 6 5 7 7 8 7 6 7 9 13 4 1 3 3 5 6 9 11 12 13 13 14 15 14 10 11 7 7 7 9 12 9 12 11 8 11 9 11 10 12 9 11 10 10 9 9 8 7 8 6 6 4 7 9 12 12 11 12 12 13 14 13 11 12 12 12 11 11 10
23 23 23 23 24 25 24 24 22 22 23 23 21 20 18 16 14 9 6 9 3 7 5 8 7 8 8 8 3 6 3 3 5 7 9 10 12 12 10 10 12 14 10 13 11 7 8 8 8 12 4 13 8 12 15 11 10 10 10 8 9 10 9 8 7 11 10 5 7 9 4 6 10 11 11 11 12 12 12 12 13 13 13 12 11 11 11 11
22 23 24 23 23 23 22 22 21 22 21 23 21 20 18 14 10 7 7 7 6 7 7 7 8 6 8 7 2 5 5 5 7 9 10 12 12 13 14 12 12 11 12 9 7 4 6 8 11 8 10 8 8 12 8 9 9 9 11 10 6 8 12 10 8 9 8 6 9 9 7 8 10 11 12 11 10 11 12 12 12 12 12 12 11 12 11 11
21 23 23 23 24 24 23 22 21 21 21 21 20 20 18 10 9 5 7 11 4 8 7 7 8 10 10 10 7 8 7 9 10 10 9 12 13 14 14 14 13 12 9 6 3 5 8 8 12 12 9 8 11 11 10 9 10 9 8 9 10 7 10 9 9 9 2 7 8 9 8 9 9 11 12 11 11 10 11 11 12 13 13 12 11 10 10 11
22 22 23 25 25 24 23 22 21 22 21 20 21 17 13 9 7 8 8 8 6 7 6 5 4 8 7 7 4 11 10 11 10 11 11 11 14 14 16 15 13 12 11 7 8 7 10 11 8 9 9 10 11 11 11 10 8 7 10 8 9 10 9 7 12 10 7 8 8 6 7 9 11 11 12 12 11 11 11 11 11 11 11 12 11 10 10 10
23 23 25 25 24 25 22 21 21 23 21 21 20 15 10 6 8 10 9 7 7 6 7 8 9 7 13 10 11 11 11 8 9 10 11 8 12 16 16 14 12 13 11 11 9 12 10 11 9 9 10 12 13 12 11 11 11 11 10 11 11 10 7 6 8 11 7 7 7 7 8 10 11 12 12 13 11 10 10 11 12 12 11 10 11 11 11 10
25 26 25 24 23 23 22 21 22 21 21 21 24 12 12 12 7 8 7 6 6 5 6 8 7 8 10 14 10 11 12 11 9 11 13 13 10 12 15 13 13 14 13 12 11 15 12 9 10 10 12 13 14 14 11 11 10 10 10 9 9 9 9 7 5 10 9 8 6 8 7 10 11 12 12 12 11 10 10 10 12 12 11 10 10 10 11 10
26 25 24 25 23 23 22 23 21 20 19 17 8 4 6 5 6 5 9 10 12 13 14 0 14 9 3 6 10 9 10 12 11 12 13 13 11 15 17 14 15 13 13 12 15 16 12 13 12 13 11 14 14 15 14 14 15 9 10 13 12 10 11 12 13 12 9 8 6 7 10 10 11 11 12 12 11 10 11 11 10 11 12 12 10 11 10 10
25 26 26 26 23 24 24 23 22 20 16 12 11 7 7 11 12 4 7 9 16 16 15 13 11 13 6 6 9 12 11 13 11 13 15 13 15 16 16 15 15 14 14 16 15 13 13 14 13 16 14 15 13 12 13 15 10 6 11 10 7 8 10 12 12 13 9 9 5 5 11 11 12 12 13 12 12 12 12 11 11 12 12 13 14 12 11 9
25 25 25 24 25 24 25 24 23 21 19 8 7 8 9 7 6 9 10 11 8 13 16 14 10 13 3 8 10 10 11 11 15 15 12 17 15 15 15 15 16 14 14 16 13 15 14 15 13 16 13 14 14 14 15 9 6 11 9 11 11 11 10 15 12 12 7 8 4 7 6 9 13 12 13 13 12 10 10 11 11 11 12 11 12 13 13 13
27 26 25 25 25 26 27 27 22 24 7 6 7 12 9 8 6 6 7 11 16 14 13 13 14 13 10 9 7 12 16 14 15 16 15 17 17 18 17 16 16 15 16 18 14 15 13 13 16 16 16 14 14 16 12 9 9 9 11 10 11 9 10 10 8 12 10 9 8 10 8 8 11 11 12 11 12 11 11 13 12 11 12 12 14 13 13 14
27 26 25 24 25 27 30 26 26 11 8 11 12 13 13 7 5 7 11 9 10 8 13 14 14 12 13 12 10 13 16 13 14 18 16 18 15 17 14 18 17 16 15 19 16 13 13 14 16 15 18 10 9 8 10 10 10 11 11 12 11 13 8 6 7 11 11 12 12 9 7 7 8 10 10 9 11 12 13 13 13 12 12 12 12 13 13 13
26 26 25 26 25 26 29 25 10 2 5 11 15 15 8 2 3 6 9 10 11 13 11 12 11 11 11 9 11 14 15 11 15 14 16 18 17 15 13 13 12 15 15 17 13 13 14 16 17 18 14 11 13 12 13 11 10 11 14 14 12 11 8 12 8 12 6 7 11 10 7 6 6 11 6 8 10 10 9 11 12 12 13 13 13 14 14 13
25 25 24 23 25 27 32 10 2 12 15 13 9 5 1 3 5 4 5 6 10 8 13 13 9 12 8 15 11 13 14 13 15 14 16 17 14 15 10 13 11 16 16 18 14 9 10 15 19 16 10 14 15 13 15 14 11 10 12 14 15 10 2 11 13 8 8 10 11 13 10 7 8 9 14 13 12 11 11 13 13 12 11 14 13 14 14 14
25 27 24 22 23 22 14 3 12 16 13 3 4 4 2 3 5 4 5 6 11 11 12 11 13 10 10 14 13 14 14 12 13 15 19 18 18 13 11 12 12 10 12 9 9 12 13 14 10 10 14 13 14 14 12 15 12 7 3 20 12 6 7 12 2 7 7 13 8 13 10 9 9 12 10 13 15 14 15 16 16 15 15 15 14 15 15 15
26 23 22 22 20 11 9 12 13 11 13 10 7 7 7 3 4 3 4 6 6 11 11 12 3 9 12 15 16 15 9 14 15 17 18 19 18 15 15 15 15 12 13 12 14 9 10 13 15 16 15 13 13 13 13 14 13 6 8 8 14 9 11 10 5 8 11 10 6 6 8 10 9 7 14 15 16 17 17 16 17 17 18 17 17 16 16 16
25 23 23 23 23 27 14 9 8 13 13 11 9 7 6 6 9 5 6 11 6 4 5 11 1 9 9 17 17 18 14 15 12 17 17 18 19 9 13 12 15 13 12 17 13 10 10 11 15 15 13 13 13 16 17 16 15 7 2 8 3 8 9 10 10 11 11 6 9 7 7 9 8 10 10 13 13 14 15 16 16 17 19 19 18 18 18 16
26 24 22 19 21 10 6 10 12 16 13 12 11 9 10 10 9 8 6 10 7 7 9 7 11 14 15 17 15 19 14 13 9 15 17 16 18 15 13 11 14 14 11 15 18 11 14 14 15 13 16 13 15 13 10 17 11 10 8 4 7 6 10 8 7 7 7 9 7 13 15 12 9 11 13 12 12 12 11 14 15 18 20 21 20 20 18 17
25 24 19 15 9 6 10 10 12 11 9 9 10 10 10 8 8 8 10 2 5 7 7 12 13 15 18 19 15 16 12 15 15 17 16 17 17 15 11 10 11 13 11 12 16 5 13 12 12 13 12 9 10 7 6 6 4 8 7 10 6 9 2 4 8 7 9 9 9 15 16 17 11 7 10 13 13 11 13 14 17 18 19 19 19 19 20 19
27 27 23 12 13 9 9 9 5 6 7 8 8 8 8 9 9 10 9 10 13 11 12 12 15 15 18 18 15 17 13 16 14 17 17 16 16 16 14 12 13 15 15 15 14 10 11 13 13 13 8 9 13 10 11 11 11 11 10 10 9 7 7 9 8 9 10 10 8 10 10 10 11 10 12 11 6 14 11 11 12 17 20 21 20 21 18 18
28 27 29 19 15 11 17 19 14 10 10 11 9 7 9 11 11 10 14 7 2 7 9 11 16 17 17 18 16 18 15 14 16 17 18 18 15 17 18 17 15 12 13 15 13 11 11 15 18 14 12 12 12 12 11 12 11 12 11 9 9 9 8 7 9 7 7 12 9 11 6 10 9 10 8 11 13 12 11 10 9 10 16 19 20 19 19 19
28 29 17 10 9 14 10 9 8 7 7 8 8 8 10 11 11 8 14 12 2 4 5 12 15 16 19 15 15 16 14 14 18 15 19 16 17 16 16 18 18 16 13 15 13 12 12 15 17 16 12 15 13 12 10 9 12 11 11 10 9 9 7 8 7 9 9 7 6 7 4 6 9 1 1 4 6 4 10 5 10 9 9 15 18 19 20 19
33 28 17 12 12 14 16 12 8 7 6 8 9 10 12 12 9 11 10 12 8 2 8 10 13 16 17 17 16 18 13 12 17 17 18 16 16 15 17 16 20 18 13 15 12 9 15 10 14 16 13 17 14 15 11 12 9 10 9 7 8 11 7 10 3 4 6 5 7 8 7 4 9 5 5 1 3 5 5 5 6 10 9 9 14 19 19 18
24 9 9 11 10 9 12 9 10 8 8 10 10 11 14 10 10 10 7 7 7 9 11 10 11 15 13 14 15 18 19 11 19 15 15 17 17 17 20 15 18 23 13 13 11 11 11 13 18 19 18 18 18 14 12 11 10 11 10 12 11 6 8 8 8 11 9 7 7 2 10 9 9 10 10 11 8 9 7 7 9 10 11 13 13 16 19 17
10 13 9 9 11 8 10 9 8 8 8 11 11 12 13 11 15 14 5 9 12 13 10 9 12 12 14 14 14 18 18 16 18 16 14 17 15 19 20 17 16 21 21 13 12 12 11 10 21 19 19 14 18 14 11 14 13 8 10 8 7 1 7 6 8 3 6 9 8 7 8 8 7 6 6 10 7 6 9 8 9 9 11 13 14 13 15 15
12 10 13 15 12 8 10 9 9 8 10 11 14 14 12 15 12 16 1 6 10 9 8 11 9 16 13 14 15 17 18 14 16 17 13 19 10 19 18 16 20 18 19 19 11 12 12 8 16 18 16 15 15 14 14 13 13 12 9 8 12 9 10 6 7 8 8 9 9 9 9 8 7 3 8 11 7 6 7 6 4 7 10 12 13 15 16 18
11 9 9 6 9 10 10 10 8 9 10 12 13 13 14 17 14 13 7 7 7 8 11 11 9 15 14 14 11 16 17 15 15 16 13 16 14 20 20 14 19 22 20 16 11 8 13 8 11 16 16 14 12 12 13 12 12 15 8 9 7 7 7 8 9 8 5 7 6 7 6 7 6 8 12 10 6 4 6 3 6 6 9 10 11 12 13 15
9 6 5 10 6 7 9 10 8 10 12 15 13 13 10 16 15 8 8 9 10 10 10 11 17 11 18 15 16 14 16 19 15 15 16 15 16 22 21 18 14 24 20 18 14 11 11 10 7 12 18 15 14 12 13 13 14 13 10 10 8 8 3 5 7 9 8 7 6 6 6 3 8 9 4 5 2 2 3 6 6 5 6 7 9 10 12 14
9 8 2 7 9 8 11 9 10 13 14 12 15 14 15 14 13 15 13 8 8 7 11 11 7 12 11 14 18 17 14 17 15 14 16 15 18 14 18 17 9 15 17 17 17 9 7 12 11 11 13 12 13 14 16 16 15 13 12 13 12 10 10 9 9 11 9 7 4 6 6 4 7 7 6 4 1 2 4 4 4 6 7 6 6 10 11 12
7 8 3 8 9 14 11 11 10 11 11 14 13 12 10 3 12 14 14 11 12 9 11 10 11 11 9 14 13 14 14 18 17 14 16 14 18 10 15 17 16 14 14 14 14 12 11 5 12 10 10 11 14 16 19 21 16 16 15 14 14 11 10 8 8 8 7 9 10 7 7 3 9 7 5 5 3 2 6 2 4 2 4 5 7 8 10 12
7 10 9 9 12 12 9 10 11 12 14 12 13 17 12 7 11 11 12 11 11 11 11 11 10 11 10 11 15 14 15 14 19 15 15 20 16 21 11 22 16 17 11 12 15 13 11 11 11 12 10 11 16 17 21 19 15 14 13 14 14 14 11 10 9 7 8 4 7 6 8 4 6 3 2 7 2 4 3 3 3 5 4 4 5 7 9 13
9 9 6 10 11 10 10 11 12 14 13 14 17 13 10 10 11 14 14 13 11 10 14 10 11 13 10 12 11 16 14 12 17 19 18 18 12 17 15 14 17 15 14 9 11 11 11 11 13 11 11 10 9 9 11 13 13 12 12 12 14 14 15 14 13 6 7 5 10 7 9 4 6 7 8 3 4 3 2 7 5 3 4 6 4 6 7 12
10 8 10 6 9 10 12 11 12 12 13 15 14 14 14 11 8 13 12 14 12 11 7 10 10 4 11 8 10 12 11 16 10 19 17 16 8 6 16 14 15 14 16 9 9 10 14 9 12 13 13 15 13 13 14 12 14 12 15 17 18 18 17 13 13 9 6 9 13 11 10 3 9 6 4 4 1 1 5 7 4 4 4 6 7 7 7 9
6 7 6 8 9 10 12 15 12 10 10 15 16 14 15 14 13 15 12 13 8 7 9 7 7 8 10 10 12 12 13 14 16 11 18 15 11 7 9 13 13 15 6 8 10 13 8 10 12 14 14 14 13 10 9 12 12 15 16 19 18 16 17 16 11 11 10 7 11 9 11 6 9 10 7 6 7 4 4 6 8 8 7 7 6 7 7 9
8 8 5 5 10 11 11 12 13 12 9 5 10 10 15 14 11 11 13 11 12 11 10 12 10 11 11 12 14 13 15 14 16 13 19 18 14 10 9 9 12 11 8 5 2 6 6 11 16 17 20 21 14 12 15 18 19 17 19 20 21 21 18 18 15 14 9 11 11 3 4 11 15 14 10 8 8 6 5 7 8 8 7 7 5 4 6 9
7 5 6 4 5 4 10 11 13 12 14 6 6 6 10 13 15 10 9 12 6 7 10 11 14 11 9 10 6 12 13 15 15 13 8 15 13 12 8 9 13 8 5 11 10 9 10 12 14 12 15 18 20 20 18 18 20 17 19 20 21 21 20 19 15 17 14 12 12 4 3 10 10 10 11 11 9 8 7 7 9 8 6 7 7 11 11 13
9 7 7 5 8 8 7 7 9 6 10 6 9 6 10 10 11 13 7 8 11 10 9 11 13 14 12 8 9 8 9 14 16 13 3 11 18 11 10 11 13 11 12 12 12 9 10 12 11 15 17 18 20 23 23 17 14 15 18 19 19 20 20 20 19 18 19 15 12 9 9 15 13 13 12 12 9 9 10 9 8 10 12 11 12 10 13 14
7 7 7 12 11 10 8 7 8 8 10 4 7 8 9 10 13 5 7 8 6 10 2 10 14 11 6 9 7 9 6 8 9 7 8 10 6 8 9 7 6 9 11 13 12 13 12 9 13 18 18 21 23 24 22 18 16 19 20 20 19 18 19 19 19 20 19 19 16 16 15 14 8 3 8 14 2 1 5 9 10 10 11 12 12 12 12 14
8 7 6 8 9 8 5 8 7 8 10 9 7 9 8 8 8 4 1 3 6 4 1 5 4 4 8 10 8 3 8 6 6 6 6 8 5 4 4 6 12 12 12 9 9 7 9 10 11 12 11 10 15 16 11 14 18 21 22 21 20 20 20 18 16 14 16 11 9 7 9 10 6 9 11 2 4 8 9 8 9 9 11 12 12 10 9 10
9 8 6 8 9 5 7 6 8 5 9 4 2 6 7 10 4 2 8 5 4 2 4 5 5 6 5 8 6 6 7 6 6 5 5 4 5 6 5 4 7 5 7 11 11 10 9 9 11 9 12 12 16 14 13 19 18 20 20 19 21 21 18 16 16 17 14 11 9 10 11 7 7 4 5 8 10 11 10 9 8 9 9 9 9 8 9 10
Wind_Direction
344 343 341 340 338 335 338 339 338 337 335 334 332 329 328 325 322 318 317 310 307 304 302 302 303 302 304 305 306 309 312 282 252 215 221 244 81 118 97 111 154 165 180 202 214 194 207 215 220 226 243 249 212 229 103 201 222 228 238 202 134 88 79 89 81 92 122 123 127 138 113 116 117 120 109 131 118 98 116 99 100 103 76 104 126 129 135 138
343 341 340 339 338 339 337 337 338 337 336 334 331 329 327 325 322 317 314 311 305 303 301 299 299 300 300 300 304 305 295 274 257 251 241 141 129 152 131 148 158 172 186 211 204 203 213 203 216 205 239 228 165 175 216 144 236 241 215 87 58 75 68 79 90 134 146 116 131 112 125 111 100 143 145 136 111 109 117 124 110 91 100 112 124 132 138 145
341 341 340 340 338 338 338 336 335 337 335 335 332 329 328 325 321 317 313 309 305 302 298 300 297 295 294 298 296 290 284 267 246 248 243 140 149 162 157 171 174 177 194 204 205 217 227 197 186 205 216 228 178 151 232 152 221 221 286 101 85 60 75 83 101 61 105 119 125 132 100 109 134 113 185 133 131 124 129 126 132 129 129 130 132 139 138 147
343 342 341 339 337 338 337 336 336 335 335 334 332 330 327 326 321 317 313 308 303 298 300 297 294 291 291 292 289 288 266 273 262 243 220 157 152 152 170 171 183 189 209 231 210 225 237 277 191 207 206 242 167 159 197 143 236 72 275 113 99 118 117 78 85 97 106 122 114 101 113 110 115 124 180 118 137 140 123 145 147 140 141 136 140 140 145 150
344 341 339 337 338 338 336 337 336 334 334 333 332 330 329 326 322 318 313 307 302 298 295 295 287 287 289 284 285 268 267 264 189 92 60 132 144 150 157 177 181 196 213 237 247 240 247 238 210 202 238 221 131 197 200 127 291 52 38 65 80 105 94 125 103 114 92 98 105 130 126 80 91 69 60 256 145 93 130 140 130 139 141 143 143 146 148 148
341 340 337 337 336 337 337 336 336 335 333 333 332 330 328 327 323 319 314 306 299 296 291 286 286 279 279 292 275 250 248 219 62 78 97 119 143 150 158 175 191 212 214 234 239 226 223 230 228 216 204 256 144 215 114 192 238 111 58 50 351 80 92 99 106 107 145 130 120 107 88 111 78 84 66 53 57 79 86 116 128 133 139 138 143 145 150 154
339 339 340 339 338 339 337 336 335 334 334 331 332 331 329 326 325 320 313 308 295 286 283 279 274 275 276 283 252 249 236 279 162 125 113 143 164 155 163 177 185 215 223 229 228 226 210 226 223 209 220 241 156 196 144 147 256 54 99 135 108 123 112 118 120 153 110 109 91 100 146 108 117 87 74 79 76 87 102 116 126 133 137 142 145 151 152 154
338 338 336 336 336 337 337 336 334 334 334 332 331 331 329 328 324 321 314 302 291 280 277 268 266 274 289 256 219 209 230 248 113 129 126 131 161 166 167 186 192 204 218 224 217 223 198 229 207 232 240 213 173 249 145 178 211 113 121 100 94 100 117 128 126 96 109 103 103 86 73 77 85 94 92 85 97 106 113 121 129 133 138 144 144 154 152 158
339 337 335 335 336 336 335 336 334 333 332 332 331 330 329 327 325 322 313 299 283 278 270 272 264 275 258 284 251 253 217 160 109 120 139 157 166 172 182 183 194 204 212 220 221 217 226 207 222 218 162 248 157 158 190 219 88 110 99 130 134 123 135 125 127 125 106 97 89 99 96 98 98 105 96 105 108 115 120 125 129 135 141 142 152 145 150 161
336 335 335 335 336 335 335 335 334 333 331 331 330 329 328 323 326 325 316 301 283 277 267 257 251 249 243 240 237 240 90 132 126 128 141 163 157 171 192 193 183 204 211 213 219 239 211 177 240 172 292 242 175 166 206 209 97 106 154 140 132 119 132 150 121 115 105 101 119 112 116 114 136 135 102 111 118 123 128 128 134 141 142 147 150 147 154 167
335 334 333 333 334 335 333 334 333 332 331 329 327 329 325 324 327 326 308 297 274 259 255 252 243 235 237 234 248 222 55 238 157 136 175 165 167 177 191 205 188 201 213 204 227 222 205 265 210 46 253 149 219 132 229 92 127 142 148 136 124 152 136 111 107 108 145 120 119 114 118 142 118 90 108 125 133 132 130 135 139 139 143 145 150 146 155 167
333 333 332 332 334 334 333 333 332 330 329 327 326 326 325 323 326 324 314 283 266 260 248 245 221 246 272 263 235 268 2 62 185 163 158 180 180 187 187 199 192 206 209 200 215 205 265 259 184 216 200 131 213 132 165 122 126 145 150 153 141 139 137 149 146 130 110 117 125 133 132 107 106 102 124 132 136 139 134 134 142 142 145 151 151 147 162 160
333 333 333 332 332 332 330 330 329 329 328 326 324 324 323 320 322 318 302 276 248 251 245 242 241 249 277 237 237 242 247 99 146 154 172 181 186 190 191 202 196 209 211 222 207 187 210 271 226 217 276 201 136 225 124 149 138 155 186 133 158 159 148 168 130 137 132 84 97 241 115 89 102 127 130 143 137 140 141 142 147 147 151 150 154 152 162 159
331 331 332 332 332 332 331 329 327 327 324 324 320 321 318 316 311 306 283 290 278 255 242 244 255 259 260 270 176 166 184 240 140 176 176 176 181 183 187 202 206 211 224 219 200 166 211 244 234 257 248 234 152 76 161 153 154 188 158 166 173 177 147 162 173 161 136 139 192 185 102 110 121 130 145 142 153 146 148 143 143 152 149 152 157 156 162 158
330 331 331 331 331 329 327 327 326 323 322 323 317 318 310 303 295 280 300 255 228 252 250 248 239 261 223 231 119 101 46 279 198 186 175 179 186 173 188 183 196 203 206 254 146 186 229 223 232 222 197 280 115 191 166 158 183 172 180 188 170 218 132 173 168 201 167 173 222 218 61 121 141 137 149 156 160 158 146 148 149 145 150 154 154 157 158 160
329 330 330 331 330 329 328 327 323 321 322 320 317 313 302 286 260 260 253 288 202 236 230 242 219 240 294 273 119 120 207 197 194 180 178 191 183 179 176 183 190 199 215 181 184 183 216 211 215 201 187 196 192 194 166 180 200 169 206 194 175 226 147 165 170 204 127 179 143 275 151 124 144 147 152 160 173 154 154 156 157 153 154 155 155 157 153 157
330 328 330 329 329 329 325 324 320 322 320 318 313 306 295 285 245 242 258 251 208 216 229 268 291 205 260 70 155 191 181 206 159 174 175 206 182 175 175 178 187 183 198 166 197 203 189 225 213 244 190 202 201 196 191 189 182 182 209 193 189 205 157 187 146 216 148 234 153 281 151 125 131 156 159 160 173 165 153 160 161 156 156 162 154 157 155 164
329 330 331 329 326 326 323 322 321 321 319 317 309 299 290 270 272 265 240 238 226 214 234 257 269 274 236 241 206 192 181 156 172 162 178 193 217 167 181 178 177 183 186 180 191 205 174 212 170 209 180 208 198 208 208 187 186 186 210 205 176 207 162 191 184 172 166 207 235 121 81 136 146 157 165 166 171 171 158 163 159 160 161 160 163 167 163 174
329 331 328 327 324 323 322 321 321 320 320 318 293 286 247 255 246 232 254 190 193 181 215 185 203 206 10 178 195 183 185 149 178 164 172 182 201 178 179 185 175 181 186 192 166 214 170 213 188 219 191 207 198 211 208 199 195 189 206 225 172 200 182 193 198 148 193 174 227 129 159 142 156 161 168 167 170 171 160 166 157 162 161 165 177 170 164 172
331 329 327 327 324 321 321 321 319 318 325 326 308 221 214 219 183 182 211 223 236 253 289 165 204 272 211 159 180 156 133 149 175 187 166 184 188 180 187 186 180 189 190 199 158 216 166 214 189 213 196 206 210 214 199 236 163 215 192 233 180 188 171 191 193 159 190 206 213 171 125 154 159 173 170 170 167 170 174 165 169 163 161 169 178 166 175 172
330 330 328 327 324 323 320 320 317 313 317 301 283 278 299 336 323 18 339 259 229 245 254 253 241 232 287 149 159 145 159 175 197 178 182 172 203 182 184 189 185 190 196 200 173 197 189 218 195 213 206 199 215 218 224 230 316 209 193 232 196 203 188 186 169 156 176 240 165 152 160 182 169 177 178 169 174 180 178 171 177 170 165 165 172 166 170 173
329 329 329 326 325 323 318 317 316 312 303 264 258 268 285 355 1 325 305 296 267 223 227 241 243 246 157 255 137 184 192 175 197 179 172 184 183 199 161 203 185 196 188 201 177 192 208 216 200 209 221 197 201 215 226 265 233 265 213 201 216 179 225 171 171 145 174 219 191 162 213 177 169 184 177 178 177 184 175 182 182 176 172 165 168 170 169 176
331 329 329 327 325 323 319 314 314 310 286 211 232 246 278 349 321 331 290 282 272 253 239 213 220 225 208 211 201 196 197 193 186 179 170 195 167 213 161 203 183 200 186 204 193 186 203 216 219 196 218 212 199 204 218 203 232 216 245 184 234 170 187 150 185 149 193 219 195 179 224 182 168 180 183 185 185 176 184 180 187 179 180 173 175 173 170 169
330 330 326 327 325 323 318 314 307 283 224 240 264 275 298 302 318 322 301 271 293 239 206 208 216 210 211 199 179 212 205 185 200 179 167 199 183 203 184 204 187 207 191 204 210 190 207 205 220 208 211 204 207 201 217 215 203 234 223 237 184 231 170 252 191 177 195 199 266 160 219 203 164 181 183 190 201 178 186 183 188 180 183 183 177 170 177 168
329 329 328 326 328 322 315 315 294 251 300 259 260 259 263 294 307 349 306 284 235 241 195 204 210 210 200 193 162 211 204 194 208 178 168 204 188 192 199 196 205 205 202 195 218 212 205 205 207 220 201 176 214 201 212 217 222 197 225 238 220 216 185 194 215 172 187 219 221 222 208 204 152 214 189 188 203 192 189 192 191 185 185 187 182 175 177 172
326 327 326 326 326 329 307 298 42 347 315 282 292 33 314 295 15 342 297 272 267 171 153 205 160 192 195 177 160 209 195 214 195 180 174 204 200 206 169 202 221 190 209 184 210 228 211 198 200 212 183 193 210 222 195 223 227 210 182 234 262 275 265 194 203 160 196 239 204 209 233 227 191 184 208 214 206 202 195 204 199 198 197 191 189 180 177 180
325 325 326 325 327 336 331 344 351 314 294 319 59 338 316 301 31 292 254 231 252 141 183 120 184 122 206 159 178 189 194 197 183 180 179 195 210 207 206 197 196 233 194 187 205 209 228 172 176 190 199 202 206 219 187 211 236 239 152 173 237 243 251 256 265 162 253 237 213 192 216 231 201 219 216 212 204 207 211 203 203 195 201 199 198 188 180 183
321 322 321 324 317 325 278 305 306 293 280 325 315 319 298 357 264 165 248 272 222 157 163 155 242 141 216 154 188 195 211 142 185 174 184 181 223 179 237 190 200 211 186 198 202 183 183 173 189 194 204 200 207 215 184 203 232 81 303 156 183 218 237 262 244 240 237 268 205 185 236 244 245 202 180 208 205 202 215 211 205 206 201 201 199 196 186 187
318 317 321 321 316 290 262 233 273 275 276 319 317 301 310 282 251 267 280 267 98 184 45 169 109 178 187 166 187 201 211 157 202 153 178 184 217 209 214 225 200 214 206 196 212 166 176 199 187 200 201 196 202 205 199 186 226 143 78 240 176 217 244 236 223 233 221 173 241 236 217 253 244 249 228 198 222 213 207 203 205 210 201 202 199 198 191 188
315 314 316 322 315 272 196 223 240 254 280 288 301 295 289 268 238 230 211 254 127 201 177 89 198 169 177 174 186 199 206 163 203 145 182 191 191 228 211 219 208 207 214 204 224 183 177 191 189 200 199 196 204 210 187 171 238 79 188 183 190 218 226 224 256 258 258 240 234 237 215 216 236 227 224 190 208 221 208 199 212 212 209 201 201 198 192 189
311 310 310 314 288 319 318 275 255 247 256 272 271 277 275 248 242 243 232 336 209 113 149 156 175 176 180 183 183 189 197 178 187 163 178 187 190 214 220 213 236 211 202 209 226 230 160 167 187 202 206 227 165 144 167 188 169 211 186 213 172 212 170 245 233 244 253 246 241 247 235 194 235 231 250 189 198 198 218 221 211 212 208 202 199 201 196 188
311 308 302 291 261 282 256 257 13 351 347 304 292 262 246 234 208 233 232 108 254 139 210 171 179 184 184 184 190 179 195 188 164 176 180 185 186 194 201 210 193 197 194 191 195 184 192 187 195 191 192 223 166 196 170 188 189 214 212 205 214 177 213 216 214 212 222 256 254 240 244 206 210 235 272 289 219 183 210 233 223 207 202 200 199 202 199 188
311 306 301 278 247 222 232 247 287 304 305 296 281 251 240 242 229 204 245 183 167 158 174 189 170 187 184 185 196 180 201 186 154 184 185 185 202 195 203 218 194 218 189 179 191 180 186 191 192 190 191 223 197 206 160 198 189 213 215 207 206 216 200 237 223 234 256 228 199 229 220 274 317 291 218 234 246 269 195 182 255 233 202 198 197 200 201 195
309 306 299 270 232 220 229 233 246 270 260 273 252 239 242 240 232 244 238 220 176 183 85 191 165 191 189 196 189 184 187 195 167 181 190 182 204 190 199 219 199 205 205 174 212 185 175 187 188 179 198 195 208 218 168 212 180 213 227 215 209 236 226 217 233 238 227 262 224 152 136 233 253 64 277 219 22 316 304 198 200 239 225 202 195 195 202 198
308 296 268 261 235 237 233 237 242 234 232 241 230 236 232 224 234 225 231 249 179 169 205 201 194 187 190 205 193 188 205 172 179 178 190 189 197 195 192 203 198 217 194 183 202 186 203 185 167 187 202 182 208 213 175 207 192 211 219 233 228 228 225 264 269 259 271 249 205 172 243 253 231 132 236 0 209 267 270 264 213 212 231 242 204 195 201 201
301 294 280 258 238 227 206 208 212 215 213 219 225 226 232 224 215 223 258 277 231 183 190 175 226 193 193 201 196 191 191 224 174 191 191 199 194 200 190 196 195 204 192 209 159 209 183 194 177 176 214 178 213 213 192 212 217 172 214 212 219 206 240 234 239 242 269 269 263 238 209 215 255 239 199 188 197 205 195 221 225 218 213 218 229 202 195 198
307 307 285 254 226 210 166 180 176 192 214 228 223 229 234 226 241 237 125 256 19 282 182 197 190 219 189 194 200 190 179 224 175 200 186 198 196 206 188 201 204 202 228 231 165 227 182 213 161 172 201 181 214 209 215 199 243 167 213 215 232 300 290 272 260 152 226 267 259 240 266 253 216 274 175 156 175 193 197 196 220 211 217 219 220 212 194 202
307 294 278 264 253 175 158 170 173 191 216 224 227 244 246 249 216 250 220 290 232 213 241 221 171 221 194 205 193 184 168 206 165 199 202 184 207 192 195 200 189 216 220 239 261 179 257 168 153 176 195 184 207 203 204 227 236 267 194 186 224 170 219 222 295 227 221 209 245 222 218 254 262 189 171 135 234 205 211 196 228 218 207 222 221 223 199 199
276 280 285 183 156 157 164 166 192 197 214 221 225 225 243 263 249 213 214 257 315 290 238 235 240 188 228 205 195 185 177 204 171 198 214 169 219 175 212 198 180 207 208 225 243 180 194 223 166 180 196 166 207 205 213 195 203 253 324 281 206 243 222 204 195 272 267 262 255 241 225 288 214 226 173 157 166 129 299 204 206 240 224 208 222 221 218 194
271 268 238 125 146 149 147 177 194 210 218 223 213 232 230 237 247 240 212 226 221 224 222 247 237 203 209 224 200 191 181 205 189 187 219 153 218 159 211 197 201 185 215 215 241 251 179 230 206 185 189 168 209 192 221 198 192 201 223 234 196 229 287 274 165 232 230 251 244 284 271 188 42 67 79 83 81 262 225 228 183 237 252 217 218 219 211 200
287 271 256 137 141 148 157 184 207 207 218 224 236 234 225 236 222 226 231 200 248 256 284 280 281 232 193 221 216 194 180 204 208 195 205 175 203 169 213 195 205 188 197 216 231 226 248 173 231 175 196 185 216 192 219 214 196 206 208 219 236 207 213 212 226 199 238 245 261 259 251 261 115 107 120 96 129 205 185 280 251 193 225 260 242 215 206 204
278 251 162 126 150 167 173 192 213 216 221 223 219 221 238 259 247 237 217 199 224 242 215 262 274 295 264 215 232 211 194 190 207 213 193 219 181 229 175 227 193 211 185 211 209 204 246 192 223 187 200 211 224 203 199 233 221 206 196 219 227 229 222 219 238 224 223 237 254 247 275 220 114 116 105 80 73 2 353 319 273 206 265 230 223 227 197 202
232 258 103 162 157 190 204 222 215 216 223 226 232 229 220 221 242 239 246 219 226 211 237 230 231 231 240 265 215 233 221 197 196 212 194 214 192 200 173 196 199 211 213 206 209 222 191 245 209 236 198 225 211 225 197 211 237 249 214 214 210 221 217 227 229 247 248 233 240 227 230 225 82 83 142 105 53 314 199 237 243 293 275 230 233 242 196 181
296 293 273 159 185 201 231 219 211 219 221 222 230 230 221 238 214 223 238 229 231 196 218 228 218 232 251 237 241 237 199 223 190 214 215 194 210 189 167 198 183 216 199 197 225 179 225 199 252 206 223 211 198 227 208 184 223 234 242 217 233 230 212 207 231 219 252 196 233 241 245 226 108 80 76 55 281 296 183 181 171 252 287 288 252 235 210 188
298 273 256 196 188 205 223 228 232 224 213 225 221 217 224 213 233 243 242 239 221 245 241 224 249 259 230 214 249 250 227 230 196 211 237 191 157 172 142 197 162 228 194 208 246 204 216 192 201 238 215 216 198 203 204 204 210 222 238 240 212 233 237 221 218 185 214 214 249 250 240 108 122 120 147 182 308 339 317 312 299 159 197 260 273 215 214 204
256 275 183 211 195 202 237 251 276 286 249 217 223 223 224 232 209 222 239 260 265 249 248 268 250 221 240 221 234 229 235 215 245 188 215 210 131 172 154 187 172 222 66 18 302 233 204 223 211 218 236 231 221 220 199 231 205 221 217 232 247 221 234 247 248 242 226 202 223 233 261 238 190 168 195 175 183 191 240 233 223 237 234 216 225 256 230 211
306 268 283 222 189 212 226 222 241 245 262 254 233 200 222 225 224 203 199 243 219 241 242 234 233 228 218 235 224 219 218 219 223 261 200 226 173 145 155 204 192 208 57 232 303 243 190 231 225 203 228 256 264 225 221 213 232 217 222 220 227 245 228 228 233 236 225 251 242 229 272 256 258 271 283 301 301 286 273 272 283 281 275 255 230 209 255 250
256 321 303 33 315 206 213 224 227 231 242 256 246 216 232 214 217 219 165 237 251 219 247 216 233 244 235 245 271 256 211 219 203 219 201 217 213 135 179 177 210 148 161 218 204 221 219 229 235 226 217 235 249 254 232 228 228 223 216 224 223 224 235 234 234 239 240 238 261 136 227 253 264 270 280 285 310 313 281 266 272 288 279 271 221 202 211 224
301 325 286 356 268 291 303 354 337 268 260 225 237 202 228 235 230 224 245 206 220 229 229 235 228 225 212 206 224 261 256 230 201 206 274 239 223 160 197 178 211 177 202 219 207 209 238 233 234 225 235 231 232 240 247 238 239 240 242 234 231 229 223 225 233 238 236 240 233 212 194 247 261 266 274 289 292 286 291 292 284 269 265 260 265 231 202 220
3 341 329 343 302 289 283 259 223 235 248 214 262 212 235 227 233 205 211 243 253 220 144 247 227 219 216 237 226 238 42 35 358 244 13 327 234 209 208 209 183 199 209 213 210 195 228 208 214 237 230 222 222 221 230 242 238 238 230 235 236 232 232 228 233 235 239 243 233 225 229 244 250 298 280 272 320 66 288 273 270 279 281 274 256 242 236 216
326 306 321 313 302 259 263 252 241 234 238 213 218 232 236 246 241 222 225 170 288 329 303 288 333 292 239 227 225 68 30 10 328 3 338 348 298 24 315 209 216 199 200 211 227 175 203 245 229 241 260 259 262 256 233 248 244 249 253 245 239 239 239 236 233 236 246 241 237 224 237 247 251 254 267 243 176 229 247 260 265 262 261 257 254 260 257 241
327 326 293 284 281 312 264 235 250 259 233 223 257 221 221 218 236 235 233 193 233 261 346 317 319 289 230 225 85 16 358 329 321 324 343 305 306 298 295 290 272 254 190 207 197 216 203 239 230 221 235 239 244 245 241 240 246 242 234 238 240 238 243 248 244 234 245 270 240 229 241 259 275 283 267 257 267 280 293 288 289 296 293 280 281 273 261 259